[[{"header":{"parameterUnit":"m.s-1","parameterCategory":2,"la1":30.2991,"la2":30.254,"lo1":-89.0895,"lo2":-89.0444,"dy":0.0017,"dx":0.0017,"nx":28,"ny":28,"refTime":"2025-07-24T21:00:00:Z","depth":"0","parameterNumber":2,"parameterNumberName":"U-component_of_CURRENTS"},"data":[0,0,0,0,0,0,0,0,0,0,0,0,0,0,0,0,0,0,0,0,0,0,0,0,0,0,0,0,0,0,0,0,0,0,0,0,0,0,0,0,0,0,0,0,0,0,0,0,0,0,0,0,0,0,0,0,0,0,0.1224,0.1224,0,0.1217,0.1217,0.1216,0.1204,0.1205,0.1205,0.1205,0.1178,0.1177,0.1176,0,0,0,0,0,0,0,0,0,0,0,0,0,0.1256,0.1255,0.1224,0.1224,0.1225,0.1217,0.1217,0.1216,0.1204,0.1205,0.1205,0.1205,0.1178,0.1177,0.1176,0,0,0,0,0,0,0,0,0,0,0,0,0,0.1241,0.1255,0.1224,0.1221,0.122,0.1217,0.1217,0.1216,0.1204,0.1205,0.1205,0.1205,0.1178,0.1177,0.1176,0.1165,0,0,0.1172,0.1172,0,0,0,0,0,0,0,0,0.1242,0.124,0.1221,0.1221,0.1221,0.1215,0.1219,0.1199,0.1204,0.1206,0.1205,0.1205,0.1191,0.1189,0.1182,0.1163,0.1162,0.1172,0.1171,0.1171,0.117,0,0,0,0,0,0,0,0.1243,0.124,0.1217,0.1221,0.1221,0.123,0.1227,0.1215,0.1194,0.1206,0.1206,0.1212,0.119,0.1183,0.1181,0.1162,0.1172,0.1171,0.117,0.117,0.1204,0.1206,0,0,0,0,0,0,0.125,0.1241,0.1218,0.1218,0.1236,0.1229,0.1226,0.1214,0.1195,0.1194,0.1211,0.1211,0.1185,0.1182,0.118,0.1228,0.1171,0.117,0.1169,0.1203,0.1205,0.1207,0,0,0,0,0,0,0.125,0.1247,0.1218,0.1233,0.1231,0.1229,0.1215,0.1214,0.1215,0.12,0.1197,0.1216,0.1185,0.1182,0.1192,0.1225,0.1169,0.1168,0.1201,0.1203,0.1206,0.1285,0,0,0,0,0,0,0.1251,0.1247,0.1239,0.1233,0.123,0.1231,0.1215,0.1213,0.122,0.1219,0.1203,0.12,0.1185,0.1194,0.1191,0.1222,0.1167,0.1199,0.1202,0.1205,0.128,0.129,0.1298,0,0,0,0,0,0.1251,0.1245,0.1238,0.1236,0.1219,0.1232,0.1232,0.1229,0.122,0.1228,0.1223,0.1201,0.1212,0.1194,0.119,0.1222,0.1197,0.1201,0.1205,0.1276,0.1288,0.1298,0,0,0,0,0,0,0.1256,0.1243,0.1236,0.1225,0.1235,0.1232,0.1237,0.1235,0.1235,0.1233,0.1214,0.1212,0.1238,0.1217,0.1198,0.1243,0.1204,0.1207,0.1259,0.127,0.1279,0.1287,0.1166,0,0,0,0,0,0.1254,0.1241,0.1243,0.1235,0.1241,0.1239,0.1243,0.1244,0.1246,0.1245,0.1238,0.1236,0.1248,0.1249,0.1251,0.1264,0.1299,0.1285,0.1294,0.1302,0.1307,0.1435,0.1457,0.1219,0.1219,0.1219,0,0,0.1254,0.1245,0.1238,0.1236,0.1239,0.126,0.1241,0.1254,0.1275,0.1242,0.1264,0.1265,0.126,0.1288,0.1298,0.1274,0.1384,0.1307,0.1313,0.1314,0.1441,0.1465,0.1486,0.1221,0.1221,0.1221,0,0,0.1262,0.1243,0.1244,0.1257,0.1269,0.1274,0.1283,0.129,0.1297,0.1318,0.1312,0.1339,0.1335,0.1354,0.1359,0.1416,0.1432,0.1413,0.1459,0.1583,0.1605,0.1624,0.1683,0.1707,0.1413,0.1413,0.1413,0,0.1265,0.1264,0.1251,0.1269,0.1284,0.1286,0.1311,0.1322,0.1334,0.1344,0.1336,0.1377,0.1373,0.1425,0.1449,0.1439,0.1493,0.1418,0.1599,0.1618,0.1637,0.1692,0.1718,0.1417,0.1417,0.1416,0.1416,0,0.1282,0.1291,0.1299,0.1316,0.133,0.1354,0.1373,0.1388,0.1395,0.1407,0.1456,0.1469,0.1492,0.1505,0.1492,0.1609,0.1599,0.1603,0.1575,0.1666,0.1718,0.1743,0.1424,0.1422,0.1421,0.142,0,0,0.1271,0.1303,0.1307,0.1329,0.1359,0.1374,0.1409,0.1442,0.1464,0.1496,0.1541,0.1583,0.1589,0.1597,0.1601,0.1701,0.187,0.1708,0.1712,0.1772,0.212,0.1797,0.1793,0.1925,0.193,0.1934,0.2098,0,0.1294,0.1339,0.1341,0.1392,0.1426,0.1433,0.1461,0.1489,0.1512,0.1557,0.1597,0.164,0.1625,0.1647,0.175,0.1842,0.1943,0.1822,0.2017,0.2021,0.173,0.1813,0.1611,0.1713,0.2122,0.2127,0.213,0,0.1317,0.1345,0.1397,0.1437,0.1447,0.1468,0.1508,0.1534,0.1587,0.1605,0.1662,0.169,0.1807,0.1797,0.2021,0.1951,0.2043,0.2117,0.2126,0.1812,0.1744,0.1692,0.1743,0.1605,0.2168,0.2165,0.2162,0,0.134,0.1384,0.1426,0.1444,0.1487,0.1496,0.151,0.1547,0.1575,0.1645,0.1681,0.18,0.1866,0.2032,0.2119,0.2119,0.2356,0.2378,0.2173,0.2151,0.2002,0.1954,0.1942,0.2568,0.2568,0.2567,0.2567,0,0.1376,0.1414,0.1435,0.1466,0.1502,0.1511,0.1548,0.1569,0.1615,0.1658,0.1709,0.1766,0.1943,0.2058,0.217,0.2196,0.2401,0.2185,0.2179,0.2012,0.1965,0.185,0.1823,0.2573,0.2572,0.2571,0.257,0,0.1422,0.1434,0.1489,0.1518,0.1523,0.1549,0.1573,0.1605,0.1626,0.1692,0.1721,0.1804,0.1908,0.2017,0.2252,0.2205,0.2179,0.2266,0.199,0.1943,0.1527,0.1511,0.1505,0.1479,0.2082,0.2075,0.2069,0,0.1463,0.1496,0.1531,0.1557,0.1572,0.1598,0.1619,0.1624,0.1651,0.1701,0.1741,0.1813,0.1839,0.1948,0.1901,0.196,0.1975,0.1753,0.1684,0.1452,0.1441,0.1461,0.1448,0.1562,0.1553,0.1545,0.1539,0,0.1559,0.156,0.1602,0.1648,0.1669,0.1676,0.1691,0.17,0.1701,0.172,0.1734,0.1749,0.1716,0.1594,0.1521,0.1543,0.1539,0.158,0.1497,0.1121,0.1007,0.0992,0.1472,0.1469,0.1476,0.1481,0.1485,0.1488,0.1638,0.168,0.1726,0.1761,0.1768,0.1743,0.1729,0.1718,0.1708,0.1674,0.17,0.162,0.1355,0.118,0.1166,0.0814,0.104,0.0736,0.0774,0.0846,0.0674,0.0892,0.075,0.0752,0.0755,0.0757,0.0759,0,0.1766,0.1797,0.1841,0.1856,0.185,0.1823,0.178,0.1728,0.167,0.1595,0.1553,0.1179,0.0888,0.0665,0.02,0.0047,0.0172,0.0011,0.0094,0.0161,0.049,0.0305,-0.0135,-0.0134,-0.0134,-0.0134,-0.0134,-0.0134,0.1853,0.1924,0.1924,0.1934,0.1914,0.1851,0.1795,0.1686,0.1588,0.133,0.1084,0.0971,0.0478,-0.014,-0.052,-0.0512,-0.0435,-0.0526,-0.0372,-0.0118,-0.0043,0.0029,-0.0153,-0.0681,-0.0682,-0.0718,-0.0719,-0.072]},{"header":{"parameterUnit":"m.s-1","parameterCategory":2,"la1":30.2991,"la2":30.254,"lo1":-89.0895,"lo2":-89.0444,"dy":0.0017,"dx":0.0017,"nx":28,"ny":28,"refTime":"2025-07-24T21:00:00:Z","depth":"0","parameterNumber":3,"parameterNumberName":"V-component_of_CURRENTS"},"data":[0,0,0,0,0,0,0,0,0,0,0,0,0,0,0,0,0,0,0,0,0,0,0,0,0,0,0,0,0,0,0,0,0,0,0,0,0,0,0,0,0,0,0,0,0,0,0,0,0,0,0,0,0,0,0,0,0,0,0.0044,0.0044,0,0.0074,0.0075,0.0075,0.0088,0.0087,0.0087,0.0087,0.0125,0.0126,0.0127,0,0,0,0,0,0,0,0,0,0,0,0,0,0.0041,0.0041,0.0044,0.0044,0.0044,0.0074,0.0075,0.0076,0.0088,0.0087,0.0087,0.0087,0.0124,0.0126,0.0127,0,0,0,0,0,0,0,0,0,0,0,0,0,0.0055,0.0041,0.0044,0.0053,0.0054,0.0074,0.0075,0.0076,0.0088,0.0087,0.0087,0.0087,0.0124,0.0126,0.0127,0.0146,0,0,0.0133,0.0134,0,0,0,0,0,0,0,0,0.0054,0.0056,0.0051,0.0052,0.0053,0.0075,0.0088,0.0099,0.0088,0.0076,0.0087,0.0086,0.0108,0.0111,0.012,0.0147,0.0149,0.0133,0.0134,0.0135,0.0136,0,0,0,0,0,0,0,0.0053,0.0055,0.0057,0.0051,0.0052,0.0071,0.0072,0.009,0.0095,0.0077,0.0078,0.0079,0.0109,0.0118,0.0121,0.015,0.0133,0.0135,0.0136,0.0137,0.0204,0.0204,0,0,0,0,0,0,0.0044,0.0053,0.0056,0.0058,0.0051,0.0071,0.0072,0.007,0.0095,0.0098,0.0079,0.0079,0.0115,0.0119,0.0122,0.0146,0.0135,0.0137,0.0138,0.0203,0.0204,0.0205,0,0,0,0,0,0,0.0044,0.0044,0.0055,0.0056,0.0058,0.007,0.0068,0.0071,0.0078,0.0096,0.0099,0.0084,0.0115,0.012,0.0143,0.0147,0.0138,0.0139,0.0202,0.0203,0.0204,0.0192,0,0,0,0,0,0,0.0044,0.0044,0.0041,0.0055,0.0057,0.007,0.0068,0.0071,0.0079,0.0079,0.0101,0.0104,0.0115,0.014,0.0145,0.0149,0.0141,0.0201,0.0203,0.0204,0.0192,0.0193,0.0193,0,0,0,0,0,0.0043,0.0044,0.004,0.0041,0.0052,0.007,0.0074,0.0083,0.0079,0.0088,0.0102,0.0103,0.0151,0.0142,0.0148,0.0153,0.0201,0.0202,0.0204,0.0191,0.0192,0.0193,0,0,0,0,0,0,0.0042,0.0045,0.0042,0.0042,0.0055,0.0072,0.008,0.0083,0.0101,0.01,0.0113,0.0119,0.0139,0.0152,0.0141,0.0177,0.0176,0.0179,0.0165,0.0166,0.0167,0.0209,0.0142,0,0,0,0,0,0.0038,0.0039,0.0047,0.0048,0.0054,0.0065,0.0073,0.0079,0.0094,0.0102,0.0115,0.0132,0.0151,0.0162,0.0181,0.0202,0.0268,0.021,0.0211,0.0211,0.025,0.0392,0.0411,0.021,0.021,0.021,0,0,0.0037,0.004,0.0039,0.0048,0.0058,0.0065,0.007,0.0083,0.0089,0.0104,0.0119,0.0135,0.0158,0.018,0.0191,0.019,0.0287,0.0213,0.0213,0.0253,0.0396,0.0416,0.0434,0.0211,0.0211,0.021,0,0,0.0039,0.0039,0.0041,0.0049,0.0061,0.0069,0.0071,0.0087,0.0096,0.0114,0.0124,0.0159,0.0172,0.0205,0.0218,0.0242,0.0287,0.0226,0.0267,0.0402,0.0421,0.0439,0.0483,0.0505,0.0228,0.0228,0.0228,0,0.0036,0.0035,0.0046,0.0051,0.0056,0.0068,0.0072,0.0086,0.0107,0.0138,0.0117,0.02,0.0195,0.0265,0.0255,0.0247,0.0307,0.0254,0.0407,0.0426,0.0445,0.0487,0.0511,0.0227,0.0227,0.0227,0.0227,0,0.0041,0.0036,0.0041,0.0046,0.0059,0.0065,0.0081,0.0103,0.0111,0.0141,0.0212,0.0234,0.03,0.0281,0.0264,0.038,0.037,0.039,0.0408,0.0465,0.0503,0.0529,0.0227,0.0227,0.0227,0.0227,0,0,0.0031,0.004,0.0039,0.0045,0.0053,0.0072,0.0091,0.0136,0.0197,0.0215,0.0315,0.0319,0.0367,0.0389,0.0392,0.0484,0.0605,0.0483,0.049,0.0532,0.0858,0.0765,0.0784,0.0666,0.0672,0.0677,0.0809,0,0.0024,0.0028,0.0038,0.0048,0.0051,0.0079,0.0114,0.0164,0.0218,0.0321,0.0377,0.0464,0.0397,0.0449,0.0528,0.062,0.0685,0.0565,0.0795,0.0801,0.0719,0.0817,0.0782,0.0894,0.0835,0.0839,0.0842,0,0.0015,0.0021,0.0022,0.0066,0.0077,0.0094,0.0189,0.0227,0.0364,0.0422,0.0532,0.0595,0.0718,0.0667,0.0857,0.0789,0.0818,0.0866,0.0874,0.0828,0.076,0.0842,0.0943,0.0994,0.0883,0.0879,0.0876,0,-0.0004,0.0013,0.0015,0.002,0.0071,0.0102,0.0147,0.0262,0.0349,0.0516,0.0632,0.0769,0.0889,0.0981,0.1023,0.0978,0.1236,0.1196,0.1126,0.1116,0.1156,0.114,0.1352,0.134,0.134,0.1339,0.1339,0,-0.0027,-0.002,0.0011,0.0011,0.0078,0.0108,0.0221,0.0296,0.0457,0.061,0.0697,0.0863,0.0991,0.1126,0.1124,0.1207,0.132,0.1172,0.1181,0.1136,0.1118,0.1216,0.1228,0.1344,0.1343,0.1342,0.1341,0,-0.0045,-0.0047,-0.0019,0.0035,0.0063,0.0119,0.0263,0.0373,0.0501,0.0717,0.0786,0.1003,0.118,0.1243,0.1416,0.1353,0.1438,0.14,0.1279,0.1271,0.1217,0.1226,0.1445,0.1466,0.1378,0.1377,0.1376,0,-0.0054,-0.0052,0.0012,0.0059,0.0085,0.0175,0.0266,0.0387,0.0516,0.08,0.0925,0.115,0.1317,0.1491,0.1451,0.1455,0.1462,0.1378,0.1283,0.1251,0.1273,0.1267,0.1269,0.1306,0.1305,0.1304,0.1303,0,-0.0035,-0.0015,0.003,0.0108,0.0186,0.0291,0.0416,0.0517,0.0696,0.0868,0.1118,0.1273,0.1435,0.1478,0.1449,0.1419,0.1403,0.135,0.1424,0.1332,0.1251,0.1259,0.1109,0.1293,0.1294,0.1295,0.1295,0.1296,0.002,0.0062,0.012,0.0199,0.0285,0.0398,0.0483,0.0625,0.0805,0.1042,0.1194,0.1391,0.1461,0.1442,0.1429,0.1338,0.1347,0.129,0.1328,0.1343,0.1314,0.1075,0.1195,0.1196,0.1196,0.1196,0.1197,0,0.0103,0.0145,0.0218,0.0308,0.0394,0.0424,0.059,0.067,0.0843,0.1041,0.1219,0.1361,0.1421,0.1434,0.133,0.1319,0.1324,0.1339,0.1383,0.1403,0.1308,0.1252,0.1263,0.1263,0.1263,0.1263,0.1263,0.1263,0.0163,0.0238,0.0255,0.0381,0.0441,0.0547,0.0625,0.0731,0.0857,0.1027,0.113,0.1247,0.1279,0.1412,0.1424,0.1415,0.1499,0.1453,0.1521,0.1488,0.1488,0.1488,0.1443,0.1494,0.1494,0.1597,0.1598,0.1599]}],[{"header":{"parameterUnit":"m.s-1","parameterCategory":2,"la1":30.2991,"la2":30.254,"lo1":-89.0895,"lo2":-89.0444,"dy":0.0017,"dx":0.0017,"nx":28,"ny":28,"refTime":"2025-07-24T21:00:00:Z","depth":"2","parameterNumber":2,"parameterNumberName":"U-component_of_CURRENTS"},"data":[0,0,0,0,0,0,0,0,0,0,0,0,0,0,0,0,0,0,0,0,0,0,0,0,0,0,0,0,0,0,0,0,0,0,0,0,0,0,0,0,0,0,0,0,0,0,0,0,0,0,0,0,0,0,0,0,0,0,0.1095,0.1096,0,0.109,0.109,0.109,0.1105,0.1105,0.1106,0.1107,0.1111,0.1111,0.111,0,0,0,0,0,0,0,0,0,0,0,0,0,0.1107,0.1106,0.1095,0.1096,0.1096,0.1091,0.109,0.109,0.1104,0.1105,0.1106,0.1107,0.1112,0.1111,0.111,0,0,0,0,0,0,0,0,0,0,0,0,0,0.1098,0.1106,0.1095,0.1106,0.1107,0.1091,0.109,0.1089,0.1104,0.1105,0.1107,0.1108,0.1112,0.1111,0.111,0.1079,0,0,0.1107,0.1106,0,0,0,0,0,0,0,0,0.1098,0.1097,0.1104,0.1105,0.1106,0.1103,0.1096,0.1088,0.1104,0.1101,0.1107,0.1109,0.1111,0.111,0.1101,0.1079,0.1079,0.1107,0.1106,0.1106,0.1105,0,0,0,0,0,0,0,0.1099,0.1097,0.1089,0.1104,0.1106,0.1107,0.1107,0.1094,0.1096,0.1101,0.1103,0.1109,0.1112,0.1101,0.1101,0.1079,0.1107,0.1106,0.1105,0.1105,0.1139,0.1141,0,0,0,0,0,0,0.1107,0.1097,0.1089,0.1089,0.111,0.1107,0.1106,0.1099,0.1096,0.1098,0.1108,0.111,0.1103,0.1102,0.1101,0.116,0.1106,0.1105,0.1104,0.1138,0.114,0.1141,0,0,0,0,0,0,0.1107,0.1105,0.109,0.1098,0.1096,0.1106,0.1098,0.1099,0.1115,0.1102,0.1103,0.1127,0.1104,0.1103,0.1116,0.1157,0.1104,0.1103,0.1136,0.1138,0.114,0.1217,0,0,0,0,0,0,0.1107,0.1105,0.1114,0.1098,0.1096,0.1097,0.1097,0.1098,0.1117,0.112,0.1118,0.1118,0.1104,0.1117,0.1115,0.1155,0.1103,0.1134,0.1137,0.114,0.1213,0.1222,0.1229,0,0,0,0,0,0.1107,0.1118,0.1114,0.1115,0.1104,0.1098,0.1097,0.1105,0.1117,0.1123,0.1129,0.1119,0.1134,0.1117,0.1114,0.1155,0.1133,0.1136,0.1139,0.1209,0.122,0.1229,0,0,0,0,0,0,0.1129,0.112,0.1116,0.1124,0.1118,0.1102,0.1118,0.1118,0.1124,0.1141,0.1125,0.1125,0.1159,0.114,0.1122,0.1174,0.1137,0.114,0.1191,0.1201,0.1209,0.1224,0.1102,0,0,0,0,0,0.1136,0.1141,0.1128,0.1135,0.1137,0.1129,0.1134,0.1138,0.1138,0.1144,0.1141,0.1149,0.1164,0.117,0.1173,0.1186,0.1226,0.1215,0.1224,0.1231,0.1242,0.1359,0.138,0.1152,0.1152,0.1152,0,0,0.1142,0.1144,0.1143,0.114,0.1139,0.1135,0.1135,0.1152,0.1154,0.1142,0.1157,0.1177,0.1175,0.1204,0.1218,0.1196,0.1316,0.1235,0.1242,0.1248,0.1365,0.1387,0.1407,0.1155,0.1154,0.1154,0,0,0.1155,0.1162,0.1167,0.1164,0.1174,0.1166,0.1177,0.1173,0.1184,0.1197,0.1205,0.1251,0.1246,0.1268,0.1275,0.1328,0.136,0.1335,0.1384,0.1498,0.1519,0.1537,0.1617,0.1642,0.1335,0.1335,0.1335,0,0.1176,0.1167,0.1168,0.1172,0.1179,0.1181,0.1187,0.1186,0.1189,0.1217,0.1216,0.1287,0.1281,0.1344,0.1363,0.135,0.1414,0.1346,0.1513,0.1532,0.1549,0.1626,0.1653,0.1339,0.1339,0.1338,0.1338,0,0.1164,0.1178,0.1186,0.1185,0.1191,0.1203,0.1201,0.122,0.1244,0.1259,0.134,0.1357,0.1409,0.1419,0.1401,0.1523,0.1528,0.1517,0.1492,0.1578,0.1652,0.1679,0.1345,0.1344,0.1342,0.1341,0,0,0.1187,0.118,0.1192,0.1202,0.1207,0.1215,0.1231,0.126,0.1308,0.1339,0.142,0.1459,0.1508,0.1521,0.1535,0.162,0.1787,0.1624,0.1629,0.1711,0.2043,0.1693,0.1688,0.1826,0.1831,0.1835,0.2045,0,0.1192,0.1199,0.1196,0.1219,0.1227,0.1243,0.1263,0.1297,0.1341,0.1416,0.1482,0.1558,0.1533,0.1593,0.1678,0.1769,0.1861,0.1731,0.194,0.1945,0.1631,0.1707,0.1535,0.1676,0.2071,0.2075,0.2078,0,0.1184,0.1202,0.1216,0.1257,0.1267,0.1284,0.1357,0.1373,0.1465,0.1514,0.1613,0.1664,0.179,0.1762,0.1978,0.1908,0.1983,0.2044,0.2054,0.1715,0.1642,0.1654,0.1709,0.2122,0.2119,0.2116,0.2113,0,0.1195,0.1224,0.1243,0.1249,0.1284,0.1323,0.1353,0.1425,0.1472,0.1595,0.1669,0.1812,0.1904,0.2044,0.2108,0.2097,0.2331,0.2332,0.2092,0.207,0.1949,0.1902,0.2502,0.2502,0.2502,0.2501,0.25,0,0.1194,0.1226,0.126,0.1273,0.1344,0.1357,0.1447,0.1491,0.1586,0.1666,0.1736,0.1823,0.1988,0.2101,0.2181,0.2175,0.2395,0.2108,0.21,0.196,0.1914,0.2312,0.2287,0.2509,0.2507,0.2506,0.2504,0,0.121,0.1209,0.1257,0.1317,0.1345,0.1403,0.1491,0.1562,0.163,0.1742,0.1789,0.1898,0.1989,0.2082,0.2287,0.2216,0.2281,0.2224,0.1997,0.1949,0.1948,0.1925,0.2031,0.202,0.2011,0.2004,0.1997,0,0.1214,0.1239,0.1307,0.1361,0.1402,0.1482,0.1546,0.1595,0.1655,0.1766,0.1824,0.1907,0.1892,0.1967,0.1901,0.1916,0.2081,0.1736,0.1624,0.1918,0.1902,0.1893,0.1883,0.1559,0.155,0.1542,0.1536,0,0.1284,0.1312,0.1363,0.1453,0.1526,0.1582,0.166,0.1684,0.1739,0.1763,0.1781,0.1759,0.1707,0.154,0.1444,0.1455,0.1697,0.1559,0.2047,0.1597,0.146,0.1446,0.1457,0.1468,0.1475,0.148,0.1483,0.1486,0.1379,0.1434,0.1507,0.1581,0.165,0.1681,0.1695,0.1713,0.1707,0.1646,0.166,0.1477,0.1398,0.1055,0.1017,0.0982,0.1128,0.1123,0.1157,0.1198,0.0996,0.0838,0.0697,0.0699,0.0701,0.0703,0.0705,0,0.151,0.1564,0.1642,0.1696,0.173,0.1768,0.1781,0.172,0.1636,0.1452,0.1332,0.0984,0.0765,0.0726,0.0518,0.0439,0.057,0.0446,0.0657,0.072,0.0778,0.0567,0.0149,0.0148,0.0147,0.0146,0,0,0.1598,0.1678,0.1679,0.1745,0.1794,0.1816,0.18,0.1657,0.1477,0.1106,0.0844,0.0709,0.0632,0.0362,0.0312,0.0205,0.0486,0.0182,0.0623,0.0935,0.0993,0.1146,0.0881,0,0,0,0,0]},{"header":{"parameterUnit":"m.s-1","parameterCategory":2,"la1":30.2991,"la2":30.254,"lo1":-89.0895,"lo2":-89.0444,"dy":0.0017,"dx":0.0017,"nx":28,"ny":28,"refTime":"2025-07-24T21:00:00:Z","depth":"2","parameterNumber":3,"parameterNumberName":"V-component_of_CURRENTS"},"data":[0,0,0,0,0,0,0,0,0,0,0,0,0,0,0,0,0,0,0,0,0,0,0,0,0,0,0,0,0,0,0,0,0,0,0,0,0,0,0,0,0,0,0,0,0,0,0,0,0,0,0,0,0,0,0,0,0,0,-0.0102,-0.0102,0,-0.0075,-0.0075,-0.0075,-0.0061,-0.0062,-0.0062,-0.0062,-0.0053,-0.0052,-0.0052,0,0,0,0,0,0,0,0,0,0,0,0,0,-0.0096,-0.0096,-0.0102,-0.0102,-0.0102,-0.0076,-0.0075,-0.0074,-0.0061,-0.0062,-0.0062,-0.0062,-0.0053,-0.0052,-0.0052,0,0,0,0,0,0,0,0,0,0,0,0,0,-0.0085,-0.0096,-0.0102,-0.0094,-0.0093,-0.0076,-0.0075,-0.0074,-0.0061,-0.0062,-0.0062,-0.0062,-0.0053,-0.0052,-0.0052,-0.0042,0,0,-0.005,-0.0049,0,0,0,0,0,0,0,0,-0.0086,-0.0085,-0.0095,-0.0094,-0.0093,-0.0074,-0.0069,-0.0065,-0.0061,-0.0071,-0.0062,-0.0062,-0.0063,-0.0061,-0.0052,-0.0042,-0.0041,-0.005,-0.0049,-0.0049,-0.0049,0,0,0,0,0,0,0,-0.0086,-0.0086,-0.0089,-0.0095,-0.0094,-0.0076,-0.0075,-0.0068,-0.0064,-0.007,-0.007,-0.007,-0.0062,-0.0053,-0.0052,-0.0041,-0.005,-0.0049,-0.0049,-0.0048,-0.0045,-0.0046,0,0,0,0,0,0,-0.0096,-0.0087,-0.009,-0.0089,-0.0092,-0.0076,-0.0075,-0.0078,-0.0064,-0.0062,-0.007,-0.007,-0.0054,-0.0053,-0.0052,-0.0066,-0.0049,-0.0048,-0.0048,-0.0045,-0.0045,-0.0046,0,0,0,0,0,0,-0.0096,-0.0097,-0.0091,-0.0088,-0.0087,-0.0076,-0.008,-0.0077,-0.007,-0.0064,-0.0062,-0.0066,-0.0054,-0.0053,-0.0052,-0.0065,-0.0048,-0.0048,-0.0045,-0.0045,-0.0046,-0.0078,0,0,0,0,0,0,-0.0096,-0.0097,-0.0101,-0.0089,-0.0087,-0.0088,-0.008,-0.0077,-0.0071,-0.0071,-0.006,-0.0059,-0.0054,-0.0053,-0.0052,-0.0064,-0.0047,-0.0044,-0.0045,-0.0045,-0.0076,-0.0079,-0.0082,0,0,0,0,0,-0.0096,-0.0102,-0.0102,-0.0102,-0.0095,-0.0088,-0.0085,-0.0077,-0.0071,-0.007,-0.0065,-0.006,-0.0056,-0.0053,-0.0051,-0.0063,-0.0044,-0.0045,-0.0045,-0.0075,-0.0079,-0.0082,0,0,0,0,0,0,-0.0101,-0.0101,-0.0101,-0.0106,-0.0101,-0.0087,-0.0083,-0.0077,-0.007,-0.007,-0.0061,-0.006,-0.0063,-0.0057,-0.0054,-0.0063,-0.005,-0.005,-0.0073,-0.0077,-0.0079,-0.008,-0.0047,0,0,0,0,0,-0.0106,-0.0109,-0.0106,-0.011,-0.0107,-0.0094,-0.009,-0.0087,-0.0079,-0.0076,-0.0069,-0.0064,-0.0062,-0.0065,-0.0059,-0.0064,-0.0027,-0.0071,-0.0074,-0.0076,-0.0075,-0.0026,-0.0024,-0.0048,-0.0048,-0.0048,0,0,-0.011,-0.0109,-0.0112,-0.0111,-0.0103,-0.0101,-0.0092,-0.0089,-0.0086,-0.0077,-0.0071,-0.007,-0.0064,-0.007,-0.0072,-0.0069,-0.0048,-0.0077,-0.0079,-0.0077,-0.0026,-0.0024,-0.0022,-0.0048,-0.0048,-0.0048,0,0,-0.012,-0.0118,-0.0125,-0.012,-0.0116,-0.0106,-0.0107,-0.0097,-0.0092,-0.009,-0.0084,-0.0093,-0.0083,-0.0089,-0.0088,-0.0101,-0.0059,-0.01,-0.0121,-0.0074,-0.0071,-0.0069,-0.0009,-0.0001,-0.0108,-0.0108,-0.0108,0,-0.0126,-0.0136,-0.0126,-0.0128,-0.0124,-0.011,-0.0114,-0.0103,-0.0096,-0.0096,-0.0094,-0.0088,-0.0093,-0.0099,-0.0114,-0.0109,-0.0064,-0.0111,-0.0077,-0.0073,-0.007,-0.0009,0.0,-0.011,-0.0109,-0.0109,-0.0109,0,-0.014,-0.0147,-0.0147,-0.0145,-0.0138,-0.0139,-0.0125,-0.012,-0.0114,-0.0109,-0.011,-0.0111,-0.0109,-0.012,-0.0126,-0.0115,-0.0084,-0.008,-0.0067,-0.0069,-0.0005,0.0005,-0.0112,-0.0111,-0.0111,-0.011,0,0,-0.0155,-0.016,-0.016,-0.0162,-0.0149,-0.0143,-0.0137,-0.0132,-0.0123,-0.0124,-0.0107,-0.0136,-0.0134,-0.0134,-0.0138,-0.0119,-0.0069,-0.0097,-0.0094,-0.0036,0.0057,0.0087,0.0102,-0.0051,-0.0049,-0.0048,0.0095,0,-0.0172,-0.0187,-0.018,-0.0183,-0.0187,-0.0168,-0.0158,-0.015,-0.0136,-0.0112,-0.0116,-0.0099,-0.0137,-0.0129,-0.0121,-0.0059,-0.0044,-0.0107,0.0048,0.0053,0.0081,0.0113,0.0065,0.0189,0.0106,0.0108,0.0109,0,-0.0194,-0.0196,-0.0217,-0.0204,-0.0201,-0.0203,-0.018,-0.017,-0.0139,-0.0122,-0.0114,-0.0087,-0.0059,-0.0084,0.0001,-0.0029,-0.0003,0.0031,0.0038,0.0085,0.0102,0.0176,0.0212,0.0127,0.0126,0.0125,0.0123,0,-0.022,-0.022,-0.0239,-0.0236,-0.0221,-0.0227,-0.0216,-0.0192,-0.0163,-0.012,-0.0069,-0.0045,0.0019,0.0047,0.0122,0.007,0.0248,0.0191,0.0235,0.0239,0.0236,0.0237,0.023,0.023,0.0229,0.0229,0.0229,0,-0.0249,-0.0264,-0.0258,-0.0269,-0.0266,-0.0252,-0.0241,-0.0222,-0.0168,-0.0101,-0.0078,0.0031,0.006,0.0172,0.0178,0.0281,0.0302,0.0249,0.028,0.0224,0.0222,0.0191,0.0185,0.0234,0.0233,0.0232,0.0231,0,-0.0298,-0.03,-0.0311,-0.0297,-0.0289,-0.0293,-0.0245,-0.0216,-0.0168,-0.0065,-0.0031,0.0123,0.0291,0.0332,0.044,0.0392,0.046,0.0476,0.0419,0.0439,0.0391,0.0381,0.0517,0.0519,0.0521,0.0523,0.0524,0,-0.0343,-0.0355,-0.0331,-0.0315,-0.0318,-0.0307,-0.0277,-0.0231,-0.0174,0.0026,0.0104,0.0302,0.0486,0.0666,0.0628,0.066,0.0613,0.0585,0.0439,0.0405,0.0422,0.0409,0.0397,0.0431,0.0431,0.0432,0.0432,0,-0.0397,-0.0386,-0.0369,-0.0331,-0.0308,-0.0267,-0.022,-0.0161,-0.0056,0.0098,0.0378,0.0556,0.0709,0.078,0.0772,0.0749,0.0567,0.0592,0.0617,0.0357,0.0333,0.0347,0.0336,0.0436,0.0435,0.0435,0.0435,0.0435,-0.0416,-0.0399,-0.0351,-0.031,-0.0282,-0.0205,-0.0151,-0.0033,0.0141,0.0384,0.0558,0.0782,0.0778,0.0789,0.079,0.0686,0.0661,0.0548,0.0542,0.0538,0.0493,0.0473,0.0595,0.0596,0.0596,0.0597,0.0597,0,-0.039,-0.0353,-0.032,-0.0242,-0.0187,-0.0199,-0.0081,0.0019,0.0265,0.0469,0.0732,0.0771,0.0838,0.0801,0.0648,0.0593,0.0536,0.056,0.0475,0.0472,0.0469,0.0417,0.0501,0.0501,0.0501,0.0501,0,0,-0.0359,-0.0292,-0.0255,-0.0145,-0.0119,-0.0046,0.0021,0.0192,0.0327,0.0608,0.0711,0.0864,0.0803,0.0677,0.063,0.0554,0.0513,0.0531,0.0604,0.0504,0.0501,0.0453,0.0369,0,0,0,0,0]}],[{"header":{"parameterUnit":"m.s-1","parameterCategory":2,"la1":30.2991,"la2":30.254,"lo1":-89.0895,"lo2":-89.0444,"dy":0.0017,"dx":0.0017,"nx":28,"ny":28,"refTime":"2025-07-24T21:00:00:Z","depth":"4","parameterNumber":2,"parameterNumberName":"U-component_of_CURRENTS"},"data":[0,0,0,0,0,0,0,0,0,0,0,0,0,0,0,0,0,0,0,0,0,0,0,0,0,0,0,0,0,0,0,0,0,0,0,0,0,0,0,0,0,0,0,0,0,0,0,0,0,0,0,0,0,0,0,0,0,0,0.0243,0.0242,0,0.0233,0.0233,0.0233,0.0251,0.0252,0.0252,0.0252,0.0267,0.0267,0.0267,0,0,0,0,0,0,0,0,0,0,0,0,0,0.0308,0.0307,0.0243,0.0242,0.0242,0.0233,0.0233,0.0233,0.0251,0.0252,0.0252,0.0252,0.0267,0.0267,0.0267,0,0,0,0,0,0,0,0,0,0,0,0,0,0.029,0.0307,0.0243,0.0247,0.0247,0.0233,0.0233,0.0233,0.0251,0.0252,0.0252,0.0252,0.0267,0.0267,0.0267,0.0259,0,0,0.0268,0.0268,0,0,0,0,0,0,0,0,0.0291,0.0288,0.0247,0.0247,0.0247,0.0241,0.0261,0.0242,0.0251,0.0253,0.0252,0.0253,0.0258,0.0259,0.026,0.026,0.0261,0.0268,0.0268,0.0268,0.0268,0,0,0,0,0,0,0,0.0293,0.0289,0.0242,0.0246,0.0246,0.026,0.0258,0.0258,0.0256,0.0253,0.0253,0.0247,0.0258,0.026,0.0261,0.0261,0.0268,0.0268,0.0268,0.0268,0.03,0.0301,0,0,0,0,0,0,0.0284,0.029,0.0242,0.0242,0.0267,0.0258,0.0256,0.0245,0.0256,0.0257,0.0247,0.0248,0.026,0.0261,0.0261,0.0288,0.0268,0.0268,0.0268,0.03,0.03,0.0301,0,0,0,0,0,0,0.0286,0.028,0.0243,0.0263,0.0259,0.0256,0.0244,0.0245,0.026,0.025,0.0252,0.0262,0.026,0.0261,0.0268,0.0288,0.0268,0.0268,0.0299,0.03,0.0301,0.032,0,0,0,0,0,0,0.0288,0.0281,0.0279,0.0262,0.0258,0.0234,0.0243,0.0244,0.0253,0.0255,0.0264,0.0265,0.026,0.0267,0.0268,0.0288,0.0268,0.0298,0.0299,0.0301,0.0318,0.0321,0.0324,0,0,0,0,0,0.029,0.0276,0.0279,0.0273,0.0252,0.0234,0.0233,0.0235,0.0253,0.0254,0.0264,0.0265,0.0277,0.0268,0.0268,0.0289,0.0297,0.0299,0.03,0.0317,0.0321,0.0324,0,0,0,0,0,0,0.0308,0.0276,0.0278,0.0258,0.0249,0.0236,0.0236,0.0244,0.0254,0.0261,0.0266,0.0267,0.0282,0.0282,0.0271,0.0303,0.0291,0.0293,0.0304,0.0307,0.031,0.0283,0.0268,0,0,0,0,0,0.0309,0.0288,0.0269,0.0256,0.0252,0.0252,0.025,0.0249,0.0249,0.0255,0.026,0.0273,0.0287,0.0294,0.0296,0.0309,0.031,0.0327,0.0329,0.0332,0.0311,0.0367,0.0374,0.0307,0.0307,0.0307,0,0,0.0311,0.0292,0.0281,0.0258,0.0256,0.0237,0.0253,0.0246,0.0239,0.0254,0.0257,0.0278,0.0292,0.0306,0.0314,0.031,0.0346,0.0334,0.0336,0.0314,0.037,0.0376,0.0382,0.0308,0.0308,0.0308,0,0,0.0288,0.0292,0.0262,0.0251,0.0236,0.0237,0.0239,0.0232,0.0242,0.0244,0.0263,0.0289,0.0302,0.0316,0.0327,0.0347,0.0358,0.0366,0.0361,0.0417,0.0423,0.0428,0.0412,0.0415,0.0371,0.0371,0.0371,0,0.0295,0.0247,0.0254,0.0222,0.0207,0.0238,0.0206,0.0223,0.022,0.0233,0.0243,0.0289,0.0302,0.0332,0.0342,0.0353,0.0369,0.0348,0.0421,0.0427,0.0432,0.0414,0.0418,0.0372,0.0372,0.0372,0.0372,0,0.0243,0.0209,0.0195,0.0163,0.0158,0.0137,0.015,0.017,0.0198,0.0213,0.0251,0.0277,0.0314,0.0329,0.0339,0.039,0.0382,0.0418,0.0411,0.0439,0.0418,0.0422,0.0374,0.0373,0.0373,0.0373,0,0,0.0238,0.0167,0.0164,0.0133,0.0119,0.0112,0.0122,0.0134,0.0177,0.0189,0.0237,0.0257,0.0306,0.0321,0.0359,0.0392,0.0437,0.0422,0.0425,0.04,0.052,0.0471,0.0469,0.0509,0.051,0.0511,0.0481,0,0.0192,0.011,0.0094,0.0042,0.0001,0.0035,0.0054,0.0083,0.0138,0.0205,0.0248,0.0315,0.03,0.036,0.0384,0.0449,0.0452,0.0437,0.0498,0.0498,0.045,0.0475,0.0516,0.0484,0.0485,0.0485,0.0486,0,0.0131,0.0086,0.0008,-0.0025,-0.0029,-0.0025,0.0034,0.0055,0.0159,0.0213,0.028,0.0343,0.0401,0.041,0.0462,0.0467,0.0478,0.0496,0.0497,0.0443,0.0457,0.0457,0.0492,0.0492,0.0491,0.0491,0.049,0,0.0091,0.0024,-0.0038,-0.0056,-0.0071,-0.0055,-0.002,0.0066,0.0119,0.0255,0.0324,0.0393,0.0471,0.0496,0.0523,0.0524,0.0573,0.059,0.052,0.0515,0.0558,0.0554,0.06,0.06,0.0601,0.0601,0.0601,0,0.0017,-0.0035,-0.0044,-0.0082,-0.007,-0.0064,0.0002,0.0061,0.0177,0.0249,0.0348,0.041,0.0509,0.0551,0.0546,0.0536,0.0593,0.0501,0.0516,0.0562,0.0558,0.0559,0.0554,0.0599,0.06,0.06,0.06,0,-0.0055,-0.0081,-0.0138,-0.0131,-0.0107,-0.0083,0.0019,0.008,0.0188,0.0295,0.0346,0.046,0.0496,0.0532,0.0587,0.0572,0.057,0.0541,0.0542,0.0559,0.0453,0.045,0.046,0.0458,0.0457,0.0456,0.0455,0,-0.0122,-0.0161,-0.0151,-0.0132,-0.0124,-0.0065,-0.0007,0.0094,0.0167,0.0292,0.0338,0.0417,0.0469,0.049,0.0524,0.0503,0.049,0.0501,0.0494,0.0431,0.0445,0.0444,0.0443,0.0452,0.0452,0.0452,0.0451,0,-0.0213,-0.0193,-0.0206,-0.0167,-0.0117,-0.0072,0.0018,0.0072,0.0184,0.0272,0.0346,0.0386,0.0414,0.0444,0.045,0.0426,0.052,0.0486,0.0488,0.0481,0.0422,0.0437,0.0437,0.0446,0.0447,0.0447,0.0448,0,-0.0233,-0.0238,-0.0221,-0.018,-0.0136,-0.009,-0.0039,0.0049,0.0125,0.0272,0.0277,0.0329,0.0398,0.0398,0.0388,0.0388,0.0367,0.0387,0.0395,0.04,0.0398,0.0316,0.0311,0,0,0,0,0,-0.0235,-0.0229,-0.0223,-0.018,-0.0149,-0.0123,-0.003,0.0028,0.0139,0.0182,0.0241,0.0254,0.0277,0.0303,0.0281,0.0315,0.0344,0.0291,0.0365,0.0418,0.0424,0.0428,0,0,0,0,0,0,-0.0228,-0.0219,-0.0231,-0.0199,-0.0172,-0.0134,-0.0088,-0.0019,0.0031,0.0138,0.0146,0.0235,0.0242,0.0263,0.0267,0.0274,0.0319,0.0325,0.0325,0.0415,0.042,0.0425,0.0431,0,0,0,0,0]},{"header":{"parameterUnit":"m.s-1","parameterCategory":2,"la1":30.2991,"la2":30.254,"lo1":-89.0895,"lo2":-89.0444,"dy":0.0017,"dx":0.0017,"nx":28,"ny":28,"refTime":"2025-07-24T21:00:00:Z","depth":"4","parameterNumber":3,"parameterNumberName":"V-component_of_CURRENTS"},"data":[0,0,0,0,0,0,0,0,0,0,0,0,0,0,0,0,0,0,0,0,0,0,0,0,0,0,0,0,0,0,0,0,0,0,0,0,0,0,0,0,0,0,0,0,0,0,0,0,0,0,0,0,0,0,0,0,0,0,0.0087,0.0088,0,0.0117,0.0117,0.0117,0.0124,0.0124,0.0124,0.0124,0.0125,0.0125,0.0125,0,0,0,0,0,0,0,0,0,0,0,0,0,0.0044,0.0044,0.0087,0.0088,0.0088,0.0117,0.0117,0.0117,0.0124,0.0124,0.0124,0.0124,0.0125,0.0125,0.0125,0,0,0,0,0,0,0,0,0,0,0,0,0,0.0065,0.0044,0.0087,0.0096,0.0097,0.0116,0.0117,0.0117,0.0124,0.0124,0.0124,0.0124,0.0125,0.0125,0.0125,0.0129,0,0,0.0126,0.0126,0,0,0,0,0,0,0,0,0.0064,0.0067,0.0094,0.0095,0.0097,0.0118,0.0102,0.012,0.0124,0.0113,0.0124,0.0124,0.0121,0.0121,0.0126,0.0129,0.0129,0.0126,0.0126,0.0126,0.0126,0,0,0,0,0,0,0,0.0063,0.0066,0.0098,0.0095,0.0096,0.0101,0.0104,0.0106,0.0116,0.0114,0.0115,0.012,0.0121,0.0126,0.0126,0.0129,0.0126,0.0126,0.0126,0.0126,0.0129,0.0129,0,0,0,0,0,0,0.0061,0.0064,0.0097,0.0099,0.0081,0.0102,0.0105,0.011,0.0116,0.0118,0.012,0.012,0.0126,0.0126,0.0126,0.0153,0.0126,0.0126,0.0126,0.0129,0.0129,0.0129,0,0,0,0,0,0,0.006,0.0064,0.0095,0.0083,0.0087,0.0103,0.0109,0.0111,0.0115,0.0122,0.0122,0.0122,0.0125,0.0126,0.0131,0.0152,0.0126,0.0126,0.0129,0.0129,0.0129,0.0192,0,0,0,0,0,0,0.0059,0.0063,0.0065,0.0083,0.0088,0.0109,0.0109,0.0111,0.0119,0.012,0.0124,0.0124,0.0125,0.0131,0.0132,0.0152,0.0127,0.0129,0.0129,0.0129,0.019,0.0194,0.0198,0,0,0,0,0,0.0057,0.0062,0.0065,0.0069,0.009,0.011,0.0113,0.0122,0.012,0.0125,0.0127,0.0124,0.0131,0.0132,0.0132,0.0153,0.0129,0.0129,0.0129,0.0188,0.0193,0.0198,0,0,0,0,0,0,0.004,0.0064,0.0067,0.0077,0.0093,0.0112,0.0118,0.0122,0.0129,0.0129,0.0128,0.0129,0.0139,0.013,0.0131,0.0149,0.0127,0.0127,0.0172,0.0177,0.0181,0.0189,0.0127,0,0,0,0,0,0.0038,0.0049,0.007,0.0077,0.0086,0.01,0.0108,0.0118,0.0128,0.013,0.0133,0.0133,0.0139,0.0145,0.0143,0.0158,0.0125,0.0167,0.0171,0.0174,0.0179,0.0132,0.0132,0.0129,0.0129,0.0129,0,0,0.0031,0.0047,0.0051,0.0074,0.0087,0.0117,0.0105,0.0122,0.0151,0.0129,0.0158,0.0144,0.0142,0.0161,0.0164,0.0159,0.0159,0.0174,0.0178,0.018,0.0132,0.0132,0.0132,0.0129,0.0129,0.0129,0,0,0.0037,0.004,0.0058,0.0079,0.0106,0.0121,0.0126,0.0146,0.0158,0.018,0.0172,0.017,0.0179,0.0187,0.0192,0.0212,0.0176,0.0206,0.0244,0.0199,0.0199,0.0199,0.0166,0.0162,0.0215,0.0215,0.0215,0,0.0028,0.0066,0.0065,0.0098,0.0127,0.0126,0.0166,0.018,0.0199,0.0208,0.0195,0.0195,0.0196,0.022,0.0234,0.0224,0.0188,0.0234,0.0205,0.0204,0.0203,0.0168,0.0163,0.0218,0.0218,0.0218,0.0217,0,0.0059,0.0096,0.011,0.0159,0.0179,0.0214,0.0239,0.0251,0.0257,0.0266,0.0272,0.026,0.0257,0.0261,0.0263,0.0261,0.0236,0.0212,0.0198,0.0207,0.017,0.0164,0.0223,0.0221,0.0221,0.022,0,0,0.0034,0.012,0.0127,0.0171,0.0224,0.0244,0.0288,0.0326,0.0337,0.034,0.0346,0.0364,0.033,0.0331,0.0316,0.0293,0.0265,0.0257,0.0253,0.0232,0.0165,0.0185,0.018,0.0228,0.0227,0.0227,0.0147,0,0.007,0.0157,0.0185,0.0265,0.0319,0.0337,0.0374,0.0397,0.0397,0.0392,0.0377,0.0373,0.0366,0.0353,0.0329,0.027,0.0249,0.0289,0.0151,0.0148,0.0171,0.0173,0.0224,0.0142,0.014,0.0139,0.0138,0,0.0106,0.0165,0.0263,0.0342,0.0361,0.04,0.0442,0.0471,0.0466,0.0458,0.0438,0.0403,0.0385,0.0358,0.0275,0.0295,0.0243,0.0198,0.0192,0.0185,0.0156,0.0126,0.0126,0.0127,0.0128,0.0129,0.0129,0,0.0123,0.0218,0.0305,0.0339,0.042,0.0453,0.0481,0.0493,0.0507,0.0488,0.0469,0.0428,0.0395,0.0321,0.0243,0.0247,0.0129,0.0117,0.009,0.009,0.0068,0.0069,0.0056,0.0056,0.0056,0.0056,0.0057,0,0.018,0.0243,0.0321,0.0373,0.0432,0.0477,0.052,0.0527,0.053,0.052,0.0497,0.0456,0.0379,0.0302,0.0232,0.0143,0.0117,0.0098,0.0071,0.0097,0.0102,0.0064,0.0066,0.0053,0.0054,0.0055,0.0055,0,0.0208,0.0274,0.0355,0.0435,0.0456,0.0492,0.0543,0.0559,0.0564,0.0541,0.0534,0.0471,0.0366,0.0288,0.0159,0.0135,0.0043,0.002,0.0062,0.0037,0.0038,0.0044,-0.002,-0.002,-0.0019,-0.0019,-0.0019,0,0.0245,0.0296,0.0372,0.0401,0.0445,0.0504,0.0537,0.0572,0.0575,0.0533,0.0507,0.0423,0.0365,0.0202,0.0127,0.001,0.0004,-0.0013,0.002,0.0051,0.003,0.0036,0.0041,-0.0019,-0.0019,-0.0019,-0.0019,0,0.0276,0.0293,0.0339,0.04,0.0448,0.05,0.0542,0.0536,0.0549,0.0561,0.0469,0.0398,0.0285,0.0179,0.0105,0.0018,0.0014,-0.0013,-0.0013,0.0018,0.005,0.0031,0.0036,-0.0019,-0.0019,-0.0019,-0.0019,0,0.026,0.0276,0.032,0.0369,0.043,0.0465,0.0494,0.0497,0.0508,0.0467,0.0425,0.032,0.0275,0.0179,0.009,0.0031,0.0023,0.0038,0.0035,0.0034,0.0088,0.0139,0.0074,0,0,0,0,0,0.0248,0.0253,0.0284,0.0339,0.0404,0.0448,0.048,0.0504,0.0507,0.0445,0.044,0.033,0.0215,0.0161,0.0098,0.0086,0.0011,0.0018,0.0026,-0.0019,-0.0019,0.0039,0,0,0,0,0,0,0.0232,0.0253,0.0262,0.0307,0.035,0.0422,0.0444,0.0448,0.0417,0.0405,0.0331,0.0348,0.0219,0.024,0.0102,0.0087,0.0095,-0.0025,-0.0024,-0.0018,-0.0019,-0.0019,0.004,0,0,0,0,0]}]]